Location: Unspecified
(0.0000°N, 0.0000°E)
Time: 17:53:50
(UTC+00:00)

STARLINK 1025 - Pass Details

Date: 16 January 2020
Orbit: 346 x 354 km, 53.0° (Epoch: 18 January)

Event Time Altitude Azimuth Distance (km) Brightness Sun altitude
Rises 04:58:48 0° 180° (S) 2,138 6.9 -16.5°
Reaches altitude 10° 05:02:21 10° 134° (SE) 1,294 6.6 -15.6°
Maximum altitude 05:02:48 10° 125° (SE) 1,279 6.8 -15.5°
Drops below altitude 10° 05:03:15 10° 116° (ESE) 1,293 6.9 -15.4°
Sets 05:06:47 0° 69° (ENE) 2,130 7.4 -14.6°
